Location: *
(49.0044°N, 9.5056°E)
Time: 02:33:30
(UTC+00:00)

Cosmos 2227 Rocket - Pass Details

Date: 22 September 2019
Orbit: 837 x 847 km, 71.0° (Epoch: 17 October)

Event Time Altitude Azimuth Distance (km) Brightness Sun altitude
Rises 18:02:36 0° 175° (S) 3,382 5.2 -7.7°
Reaches altitude 10° 18:05:15 10° 166° (SSE) 2,453 4.4 -8.1°
Maximum altitude 18:10:10 32° 105° (ESE) 1,420 2.9 -8.9°
Drops below altitude 10° 18:15:06 10° 44° (NE) 2,475 4.3 -9.7°
Sets 18:17:47 0° 35° (NE) 3,416 5.1 -10.1°
